LiveATC.Net - Listen to live air traffic control over the Internet!


ICAO: KSMO  IATA: SMO   Airport: Santa Monica Municipal Airport
City: Santa Monica   State/Province: California
Country: United States   Continent: North America
KSMO METAR Weather: KSMO 161351Z AUTO 04003KT 10SM CLR 08/M02 A3019 RMK AO2 SLP221 T00781022
KSMO Flight Activity (FlightAware)
KSMO Webcam:  (Airport Webcams) 
KSMO Airport Info   (iFlightPlanner)
KSMO VFR Sectional Chart   (iFlightPlanner) 
KSMO IFR Low Chart   (iFlightPlanner) 

KSMO Tower
Feed Status: UP   Listeners: 0
Listen in your browser - HTML5 player (in browser, HTML5)
Click here to listen with your own player (launches your MP3 player)
Archive Access: KSMO Tower
FacilityFrequency
Santa Monica Tower120.100
Feed sponsored by: Proteus Air Services

NOTICE

Unauthorized use prohibited. See LiveATC.net Terms of Service


Airport/ARTCC Code
Frequency Search
(e.g., 124.400, 128.75)
Site-wide search
 


Browse Feeds
Top 50 Feeds
Coverage Map
Bad Weather Areas

LiveATC FAQ
Offer LiveATC feed
Contact LiveATC.net
Press Inquiries

LiveATC on iPhone
LiveATC on Android

Windows Phone
Windows 8/10

LiveATC Mobile
(Mobile browser)

ATC Audio Archives
Interesting Recordings

LiveATC Forums


Home Page
About LiveATC.net
Make a Donation
Terms of Use
Privacy Policy

Canadian Air Freqs

AIRMETs/SIGMETs

FAA Airport Status
Nat'l Airspace Status
Arrival Demand Charts


Server Software By:
Icecast.org
Liquidsoap